7 * 24
多渠道服务支持
STARLINK-34750是美国SpaceX公司星链(Starlink)星座中的一颗低轨通信卫星,于2025年7月31日发射。星链星座旨在为全球提供高速宽带互联网服务,该卫星采用平板设计,配备太阳能电池阵与氪工质霍尔推进器,具备自主避撞能力。卫星运行于近地轨道,搭载Ku/Ka波段通信载荷,服务覆盖偏远地区网络接入等场景,寿命末期会主动离轨再入大气层烧毁,减少太空垃圾影响,是星链全球星座部署的组成部分。
美国
(US)
| 数据来源 | 国际轨道数据 |
| 星历时间: | 2026-06-13T13:54:22+0800 11小时前 查看轨道信息 |
| 半长轴: | 6927.71km |
| 偏心率: | 0.000151 |
| 轨道倾角: | 97.371° |
| 近地点辐角 | 183.104° |
| 升交点赤经 | 240.633° |
| 平近点角 | 177.018° |
| 近地点: | 548.526km |
| 远地点: | 550.62km |
| 周期: | 95.641分钟 |
| 每日圈数: | 15.056299 |